Stations météo

réclame
Mon MeteoGroup
Braemar, Grande-Bretagne (99089): Température de l'air & dewpoint: 17.10.2017 16:00:00 - 23.10.2017 16:00:00 (BST)Braemar, Grande-Bretagne (99089): Température de l'air -20cm & Température de l'air -100cm: 17.10.2017 16:00:00 - 23.10.2017 16:00:00 (BST)Braemar, Grande-Bretagne (99089): Quantités de précipitations: 17.10.2017 16:00:00 - 23.10.2017 16:00:00 (BST)
Date & Time tt [°C] td [°C] tt -20cm [°C] tt -100cm [°C] rr [mm]
23.10.2017 16:00:00 - - - - -
23.10.2017 15:00:00 11,8 8,7 - - 0,0
23.10.2017 14:00:00 11,6 8,7 - - 0,0
23.10.2017 13:00:00 10,7 8,3 - - 0,0
23.10.2017 12:00:00 10,0 8,2 - - 0,0
23.10.2017 11:00:00 - - - - 0,0
23.10.2017 10:00:00 - - - - -
23.10.2017 09:00:00 - - - - -
23.10.2017 08:00:00 - - - - -
23.10.2017 07:00:00 - - - - -
23.10.2017 06:00:00 - - - - -
23.10.2017 05:00:00 3,3 2,7 - - 0,0
23.10.2017 04:00:00 2,6 2,0 - - 0,0
23.10.2017 03:00:00 3,0 2,3 - - -
23.10.2017 02:00:00 3,0 2,5 - - 0,0
23.10.2017 01:00:00 2,7 1,8 - - 0,0
23.10.2017 00:00:00 4,6 3,2 - - 0,0
22.10.2017 23:00:00 5,3 3,8 - - 0,0
22.10.2017 22:00:00 5,8 4,3 - - 0,0
22.10.2017 21:00:00 6,8 4,9 - - 0,0
22.10.2017 20:00:00 8,2 5,7 - - -
22.10.2017 19:00:00 8,9 6,1 - - 0,0
22.10.2017 18:00:00 9,5 6,7 - - 0,0
22.10.2017 17:00:00 10,6 7,3 - - 0,0
22.10.2017 16:00:00 11,1 6,8 - - 0,0
22.10.2017 15:00:00 11,0 7,2 - - 0,0
22.10.2017 14:00:00 11,6 6,7 - - 0,0
22.10.2017 13:00:00 11,4 7,2 - - 0,0
22.10.2017 12:00:00 10,8 6,4 - - 0,0
22.10.2017 11:00:00 10,5 7,3 - - 0,0
22.10.2017 10:00:00 10,1 7,2 10,0 9,9 0,0
22.10.2017 09:00:00 9,8 6,7 - - 0,2
22.10.2017 08:00:00 9,8 7,0 - - 0,0
22.10.2017 07:00:00 8,7 7,2 - - -
22.10.2017 06:00:00 8,2 7,9 - - 0,0
22.10.2017 05:00:00 - - - - 0,0
22.10.2017 04:00:00 8,1 7,5 - - 0,0
22.10.2017 03:00:00 8,4 7,8 - - 0,0
22.10.2017 02:00:00 8,4 8,0 - - 0,0
22.10.2017 01:00:00 8,2 8,1 - - 0,2
22.10.2017 00:00:00 8,3 8,1 - - 0,0
21.10.2017 23:00:00 8,4 8,2 - - 0,0
21.10.2017 22:00:00 8,6 8,1 - - 0,0
21.10.2017 21:00:00 9,0 8,4 - - 0,2
21.10.2017 20:00:00 9,3 8,7 - - 0,0
21.10.2017 19:00:00 8,7 8,2 - - 0,0
21.10.2017 18:00:00 9,8 8,5 - - 0,0
21.10.2017 17:00:00 10,2 8,5 - - 0,0
21.10.2017 16:00:00 10,8 7,6 - - 0,0
21.10.2017 15:00:00 10,3 8,8 - - 0,6
21.10.2017 14:00:00 10,0 8,9 - - 0,6
21.10.2017 13:00:00 10,8 7,7 - - 0,0
21.10.2017 12:00:00 10,8 8,3 - - 1,8
21.10.2017 11:00:00 9,8 8,6 - - 0,0
21.10.2017 10:00:00 10,1 8,8 10,0 9,9 0,0
21.10.2017 09:00:00 9,1 8,2 - - 0,8
21.10.2017 08:00:00 8,5 8,0 - - 0,0
21.10.2017 07:00:00 - - - - -
21.10.2017 06:00:00 - - - - -
21.10.2017 05:00:00 - - - - -
21.10.2017 04:00:00 - - - - -
21.10.2017 03:00:00 - - - - -
21.10.2017 02:00:00 - - - - -
21.10.2017 01:00:00 - - - - -
21.10.2017 00:00:00 - - - - -
20.10.2017 23:00:00 - - - - -
20.10.2017 22:00:00 - - - - -
20.10.2017 21:00:00 - - - - 0,0
20.10.2017 20:00:00 10,8 10,3 - - 0,2
20.10.2017 19:00:00 10,5 10,0 - - 0,0
20.10.2017 18:00:00 10,9 10,2 - - 0,0
20.10.2017 17:00:00 11,5 10,4 - - 0,2
20.10.2017 16:00:00 12,1 10,0 - - 0,0
20.10.2017 15:00:00 12,6 9,8 - - 0,0
20.10.2017 14:00:00 12,4 9,8 - - 0,0
20.10.2017 13:00:00 11,9 10,0 - - 0,0
20.10.2017 12:00:00 11,4 10,1 - - 0,0
20.10.2017 11:00:00 10,9 10,0 - - 0,0
20.10.2017 10:00:00 10,1 9,8 9,9 9,9 0,0
20.10.2017 09:00:00 9,6 9,4 - - 0,2
20.10.2017 08:00:00 9,5 9,3 - - 0,0
20.10.2017 07:00:00 9,4 9,2 - - 0,0
20.10.2017 06:00:00 9,5 9,3 - - 0,2
20.10.2017 05:00:00 9,6 9,5 - - 0,2
20.10.2017 04:00:00 9,7 9,5 - - 0,2
20.10.2017 03:00:00 9,7 9,5 - - 0,2
20.10.2017 02:00:00 9,7 9,5 - - 1,0
20.10.2017 01:00:00 9,8 9,5 - - 2,0
20.10.2017 00:00:00 9,8 9,5 - - 1,8
19.10.2017 23:00:00 9,8 9,2 - - 0,4
19.10.2017 22:00:00 10,0 9,0 - - 0,0
19.10.2017 21:00:00 10,3 8,9 - - 0,0
19.10.2017 20:00:00 10,9 8,5 - - 0,0
19.10.2017 19:00:00 10,6 8,3 - - 0,0
19.10.2017 18:00:00 11,9 8,6 - - 0,0
19.10.2017 17:00:00 12,3 9,1 - - 0,0
19.10.2017 16:00:00 13,2 9,5 - - 0,0
19.10.2017 15:00:00 13,4 9,7 - - 0,0
19.10.2017 14:00:00 13,7 9,6 - - 0,0
19.10.2017 13:00:00 12,2 9,8 - - 0,0
19.10.2017 12:00:00 10,7 9,2 - - 0,0
19.10.2017 11:00:00 10,2 9,0 - - 0,0
19.10.2017 10:00:00 10,0 8,8 9,4 10,0 0,0
19.10.2017 09:00:00 9,7 8,4 - - 0,2
19.10.2017 08:00:00 9,3 8,4 - - 0,0
19.10.2017 07:00:00 9,5 8,4 - - 0,0
19.10.2017 06:00:00 9,4 8,4 - - 0,0
19.10.2017 05:00:00 9,2 8,2 - - 0,0
19.10.2017 04:00:00 8,9 8,3 - - 0,2
19.10.2017 03:00:00 7,2 6,3 - - 0,0
19.10.2017 02:00:00 7,5 6,0 - - 0,0
19.10.2017 01:00:00 7,1 5,9 - - 0,0
19.10.2017 00:00:00 6,4 5,3 - - 0,0
18.10.2017 23:00:00 6,5 5,2 - - 0,0
18.10.2017 22:00:00 6,3 4,9 - - 0,0
18.10.2017 21:00:00 6,4 4,9 - - 0,0
18.10.2017 20:00:00 5,5 4,3 - - 0,0
18.10.2017 19:00:00 7,1 5,1 - - 0,0
18.10.2017 18:00:00 7,4 5,0 - - 0,0
18.10.2017 17:00:00 8,0 5,4 - - 0,0
18.10.2017 16:00:00 8,7 4,8 - - 0,0
18.10.2017 15:00:00 8,3 5,0 - - 0,0
18.10.2017 14:00:00 8,5 5,3 - - 0,0
18.10.2017 13:00:00 7,7 4,9 - - 0,0
18.10.2017 12:00:00 7,3 4,7 - - 0,0
18.10.2017 11:00:00 7,1 4,5 - - 0,0
18.10.2017 10:00:00 6,7 4,9 9,7 10,0 0,0
18.10.2017 09:00:00 5,4 4,9 - - 0,0
18.10.2017 08:00:00 4,7 4,0 - - 0,0
18.10.2017 07:00:00 5,5 4,5 - - 0,0
18.10.2017 06:00:00 5,8 4,4 - - 0,0
18.10.2017 05:00:00 6,2 4,6 - - 0,0
18.10.2017 04:00:00 6,5 4,5 - - 0,0
18.10.2017 03:00:00 6,7 5,1 - - 0,0
18.10.2017 02:00:00 6,6 5,2 - - 0,0
18.10.2017 01:00:00 7,3 5,0 - - 0,0
18.10.2017 00:00:00 7,5 5,1 - - 0,0
17.10.2017 23:00:00 7,4 5,0 - - 0,0
17.10.2017 22:00:00 7,7 5,2 - - 0,0
17.10.2017 21:00:00 7,4 5,5 - - 0,0
17.10.2017 20:00:00 8,3 5,8 - - 0,0
17.10.2017 19:00:00 8,4 5,7 - - 0,0
17.10.2017 18:00:00 8,6 6,2 - - 0,0
17.10.2017 17:00:00 9,4 6,6 - - 0,0
17.10.2017 16:00:00 10,4 6,7 - - 0,0

tt = Température de l'air
td = dewpoint
tt -20cm = Température de l'air -20cm
tt -100cm = Température de l'air -100cm
rr = Quantités de précipitations

stations d'obs. à proximité